Find Starlink 34200

NORAD ID: 64186 Int'l Des: 2025-113 Owner: SPXS Country: US Constellation: starlink operational
LEOCIRCULAR

Aktuelle Ansicht

3D-Globus wird geladen...

Über Starlink 34200

Beschreibung wird geladen...

Nächste Überflüge

Passes for default location (London). Set your location on the main map for personalized predictions.

Höhenverlauf

Loading altitude history...

Zweizeiliger Elementsatz

1 64186U 25113S 26150.00863493 .00034605 00000-0 11216-2 0 9995
2 64186 53.1598 72.8282 0001227 92.6390 267.4752 15.31703513 57529
Epoch: 30. Mai 2026 • Age: 11 hours

Aktueller Status

Höhe 471.6 km
Geschwindigkeit 7.63 km/s
Subsatellitenpunkt 28.46°N, 36.59°E
Startdatum 28. Mai 2025
Alter 1 years
Typ internet

Technische Details

Klassifizierung Payload
Masse 575.00 kg
Trockenmasse 530.00 kg
Gesamtmasse 575.00 kg
Länge 0.30 m
Durchmesser 4.10 m
Spannweite 29.00 m
Form Box + pan
Hersteller SPXS
Bus-Typ Starlink V2MO
Phasenstatus In Orbit
Besitzer/Staat SPXS/US

Most Searched